This is the latest recevied weather packets stored in our database for station/object WB0OCV. If no packets are shown the sender has not sent any weather packets the latest 1 day(s).
| Time | Temp. | Humidity | Pressure | Rain* | Wind** | Luminosity | Snow |
|---|---|---|---|---|---|---|---|
| 1778006635 | 18.33° C | 67% | 1014.5 hPa | 0 mm | 2.24 m/s, 223° | 693 W/m² | - |
| 1778006332 | 17.78° C | 68% | 1014.5 hPa | 0 mm | 0.89 m/s, 104° | 703 W/m² | - |
| 1778006029 | 18.33° C | 70% | 1014.7 hPa | 0 mm | 0.89 m/s, 196° | 712 W/m² | - |
| 1778005726 | 17.78° C | 68% | 1014.8 hPa | 0 mm | 0.89 m/s, 136° | 719 W/m² | - |
| 1778005422 | 17.78° C | 68% | 1014.5 hPa | 0 mm | 0.89 m/s, 162° | 730 W/m² | - |
| 1778005119 | 18.89° C | 68% | 1014.6 hPa | 0 mm | 1.34 m/s, 211° | 735 W/m² | - |
| 1778004817 | 18.33° C | 68% | 1014.5 hPa | 0 mm | 0.45 m/s, 216° | 742 W/m² | - |
| 1778004513 | 18.33° C | 68% | 1014.8 hPa | 0 mm | 1.79 m/s, 264° | 747 W/m² | - |
| 1778004210 | 18.33° C | 67% | 1014.7 hPa | 0 mm | 1.34 m/s, 216° | 754 W/m² | - |
| 1778003906 | 18.33° C | 67% | 1014.7 hPa | 0 mm | 1.34 m/s, 113° | 762 W/m² | - |
| 1778003603 | 17.78° C | 69% | 1014.6 hPa | 0 mm | 1.34 m/s, 266° | 768 W/m² | - |
| 1778003299 | 17.78° C | 68% | 1015 hPa | 0 mm | 1.34 m/s, 184° | 773 W/m² | - |
| 1778002997 | 18.33° C | 68% | 1014.9 hPa | 0 mm | 1.34 m/s, 276° | 777 W/m² | - |
| 1778002693 | 18.33° C | 68% | 1014.9 hPa | 0 mm | 1.79 m/s, 350° | 783 W/m² | - |
| 1778002389 | 18.89° C | 69% | 1014.7 hPa | 0 mm | 2.68 m/s, 243° | 786 W/m² | - |
| 1778002092 | 18.33° C | 69% | 1014.9 hPa | 0 mm | 1.34 m/s, 216° | 790 W/m² | - |
| 1778001783 | 18.33° C | 69% | 1015 hPa | 0 mm | 1.34 m/s, 248° | 794 W/m² | - |
| 1778001478 | 18.89° C | 68% | 1014.8 hPa | 0 mm | 0.89 m/s, 162° | 798 W/m² | - |
| 1778001175 | 17.78° C | 69% | 1014.8 hPa | 0 mm | 0.89 m/s, 206° | 802 W/m² | - |
| 1778000872 | 18.89° C | 67% | 1015.1 hPa | 0 mm | 0.89 m/s, 104° | 802 W/m² | - |
| 1778000569 | 18.33° C | 69% | 1015 hPa | 0 mm | 0.89 m/s, 234° | 802 W/m² | - |
| 1778000264 | 17.78° C | 68% | 1015 hPa | 0 mm | 0.89 m/s, 195° | 806 W/m² | - |
| 1777999960 | 17.78° C | 70% | 1015.3 hPa | 0 mm | 1.79 m/s, 211° | 805 W/m² | - |
| 1777999656 | 18.33° C | 68% | 1015.4 hPa | 0 mm | 1.34 m/s, 228° | 805 W/m² | - |
| 1777999353 | 17.78° C | 71% | 1015.2 hPa | 0 mm | 0.89 m/s, 121° | 803 W/m² | - |
* Rain latest hour (hover to see other rain measurements)
** Current wind speed in m/s (hover to see current wind gust speed)